This demonstration page uses our WeatherBlox Daily Observations layout. Learn more.

38.88101, -77.10428

Hourly Observations for April 11, 2020

Temp ( °F °C ) Dew Point ( °F °C ) Humidity (%) Winds ( mph kmh ) Pressure ( in mb ) Visibility ( mi km ) Precip ( " mm )
12:52 am 00:52 Clear 44 6.7 22 -5.6 41 41 NNW 5 7 29.94 1014 10 16.0934 0 0
1:52 am 01:52 Clear 43 6.1 23 -5 45 45 NNW 5 7 29.95 1014 10 16.0934 0 0
2:52 am 02:52 Mostly Clear 39 3.9 28 -2.2 65 65 WSW 3 6 29.97 1015 10 16.0934 0 0
3:52 am 03:52 Mostly Clear 39 3.9 26 -3.3 60 60 WSW 7 11 29.98 1015 10 16.0934 0 0
4:52 am 04:52 Partly Cloudy 41 5 26 -3.3 55 55 W 7 11 30 1016 10 16.0934 0 0
5:52 am 05:52 Mostly Clear 40 4.4 25 -3.9 55 55 SW 6 9 30.01 1016 10 16.0934 0 0
6:52 am 06:52 Mostly Cloudy 40 4.4 27 -2.8 60 60 SSW 7 11 30.03 1017 10 16.0934 0 0
7:52 am 07:52 Mostly Cloudy 43 6.1 28 -2.2 56 56 SW 6 9 30.04 1017 10 16.0934 0 0
8:52 am 08:52 Partly Cloudy 49 9.4 26 -3.3 41 41 W 9 15 30.05 1018 10 16.0934 0 0
9:52 am 09:52 Mostly Sunny 51 10.6 26 -3.3 38 38 W 13 20 30.04 1017 10 16.0934 0 0
10:52 am 10:52 Partly Cloudy 54 12.2 28 -2.2 37 37 W 16 26 30.04 1017 10 16.0934 0 0
11:52 am 11:52 Partly Cloudy 56 13.3 29 -1.7 36 36 W 18 30 30.04 1017 10 16.0934 0 0
12:04 pm 12:04 Partly Cloudy 56 13.3 28 -2.2 34 34 WSW 20 31 30.03 1017 10 16.0934 0 0
12:52 pm 12:52 Mostly Cloudy 57 13.9 29 -1.7 34 34 WNW 16 26 30.02 1017 10 16.0934 0 0
1:52 pm 13:52 Partly Cloudy 58 14.4 27 -2.8 31 31 WNW 10 17 30.01 1016 10 16.0934 0 0
2:52 pm 14:52 Partly Cloudy 61 16.1 28 -2.2 29 29 WNW 13 20 29.98 1015 10 16.0934 0 0
3:52 pm 15:52 Mostly Sunny 62 16.7 28 -2.2 28 28 W 10 17 29.97 1015 10 16.0934 0 0
4:52 pm 16:52 Partly Cloudy 62 16.7 28 -2.2 28 28 WNW 13 20 29.96 1015 10 16.0934 0 0
5:52 pm 17:52 Partly Cloudy 63 17.2 26 -3.3 25 25 W 9 15 29.97 1015 10 16.0934 0 0
6:52 pm 18:52 Mostly Sunny 62 16.7 26 -3.3 25 25 WNW 8 13 29.98 1015 10 16.0934 0 0
7:52 pm 19:52 Mostly Clear 59 15 26 -3.3 28 28 WNW 5 7 30 1016 10 16.0934 0 0
8:52 pm 20:52 Mostly Clear 56 13.3 39 3.9 53 53 S 3 6 30.02 1017 10 16.0934 0 0
9:52 pm 21:52 Mostly Clear 56 13.3 41 5 57 57 ENE 5 7 30.04 1017 10 16.0934 0 0
10:52 pm 22:52 Mostly Cloudy 52 11.1 34 1.1 50 50 WSW 3 6 30.06 1018 10 16.0934 0 0
11:52 pm 23:52 Cloudy 52 11.1 36 2.2 55 55 WSW 5 7 30.09 1019 10 16.0934 0 0

Powered by AerisWeather